Location: Peebles
(55.6412°N, 3.1714°W)
Time: 14:04:09
(UTC+01:00)

NOSS 3-2 (C) - Pass Details

Date: 26 September 2021
Orbit: 773 x 1439 km, 63.4° (Epoch: 15 October)

Event Time Altitude Azimuth Distance (km) Brightness Sun altitude
Rises 22:56:04 0° 231° (SW) 3,390 6.3 -30.1°
Enters shadow 22:57:08 - 231° (SW) 2,982 6.0 -30.2°
Exits shadow 23:06:17 47° 49° (NE) 1,310 4.1 -31.0°
Drops below altitude 10° 23:11:11 10° 52° (NE) 2,966 6.0 -31.4°
Sets 23:14:05 0° 53° (NE) 4,032 6.8 -31.6°
